Dewpoint
54 50 48 42 30 30 26 23 32 21 29 24 26 27 28 32 31 26 48 58 60 62 65 68 70 71 71 72 71 71 71 71 69 70 69 69 68 67 67 67 68 69 69 68 67 66 65 65 65
48 46 43 38 31 21 16 29 26 22 22 29 28 28 29 27 39 44 52 58 61 63 64 65 69 70 71 72 72 71 71 70 69 69 67 67 67 67 66 65 65 65 67 66 64 62 60 60 59
45 42 39 33 29 21 21 23 21 22 25 25 24 27 34 26 40 45 53 58 60 61 63 64 68 69 70 71 70 70 71 70 68 66 65 65 64 63 63 63 64 64 63 61 60 58 57 56 56
41 35 32 31 29 30 26 25 19 23 24 25 24 22 24 33 37 43 52 59 59 60 61 65 67 68 68 68 69 68 69 66 65 64 65 64 63 62 61 59 61 60 59 58 57 55 54 54 54
37 33 24 26 25 26 26 26 21 22 29 23 24 25 24 30 38 46 56 58 58 57 59 62 67 67 66 66 67 67 67 66 64 64 64 63 61 59 57 57 57 57 56 55 54 54 54 55 53
31 31 25 21 21 25 26 23 22 23 22 22 30 29 23 34 42 46 55 56 56 57 58 61 64 66 66 66 67 66 66 65 64 63 62 60 57 57 55 55 55 54 54 53 53 53 52 51 51
32 30 27 25 23 24 25 23 22 21 29 21 23 30 24 31 36 50 54 53 54 56 57 58 60 62 64 65 65 66 66 64 63 61 59 57 56 55 54 54 54 53 53 53 50 50 50 50 49
35 31 28 27 23 21 24 21 19 20 18 24 24 22 22 35 43 50 51 51 53 54 55 56 57 57 58 59 62 63 63 62 61 60 59 58 56 55 54 56 54 53 53 51 49 48 48 47 46
31 23 21 21 21 20 24 25 30 24 27 23 24 24 27 35 46 48 47 49 50 52 53 54 54 54 54 54 56 59 61 60 59 58 56 51 46 47 46 49 54 51 51 49 47 45 44 43 42
32 22 19 20 22 22 22 22 21 31 21 19 20 23 30 35 43 47 47 49 50 51 52 52 52 52 51 52 53 53 54 53 51 50 47 42 40 42 44 49 52 51 50 46 45 42 40 34 30
31 26 25 25 25 27 24 23 22 21 21 21 20 20 26 32 37 46 47 49 50 52 53 52 51 50 49 49 50 50 49 48 47 45 40 37 35 41 42 41 39 38 39 34 32 29 28 27 28
32 31 28 28 27 28 25 24 22 21 24 23 22 21 24 29 33 39 44 46 48 49 51 52 50 49 47 47 48 48 47 44 43 41 37 32 35 37 36 33 30 29 29 27 28 28 27 26 26
30 30 31 31 30 29 29 28 27 23 24 24 23 23 23 26 30 32 37 40 43 46 50 50 50 49 47 45 46 45 44 44 41 38 36 33 35 33 32 30 28 27 27 26 25 25 25 24 23
27 28 27 27 27 28 27 25 27 24 26 23 24 24 24 23 26 30 31 31 34 38 45 49 48 49 47 45 45 45 44 41 38 35 35 32 34 32 32 30 27 26 25 25 25 23 22 23 22
27 24 23 23 24 26 27 25 24 25 29 22 20 21 22 24 25 26 27 29 30 31 34 45 47 47 46 45 43 43 42 38 36 35 33 33 33 31 31 30 27 25 26 25 25 23 22 20 19
20 27 18 17 25 23 21 14 14 15 18 19 20 21 21 22 24 25 26 27 29 30 28 33 42 45 45 44 40 40 38 37 36 34 33 33 32 30 30 29 26 26 26 24 22 20 19 18 18
19 16 16 17 21 20 21 17 18 19 21 20 20 20 21 21 22 23 25 26 28 29 28 26 35 40 43 42 38 36 34 35 34 33 32 32 31 30 29 29 26 26 25 23 20 20 17 16 17
15 17 18 16 15 19 20 21 20 22 22 21 21 21 20 21 21 21 22 26 27 28 28 26 28 34 38 39 34 32 32 33 33 31 30 31 30 30 29 28 26 26 25 23 20 20 23 21 19
14 15 15 16 17 18 16 16 17 18 21 19 18 19 21 21 22 23 23 24 27 27 27 25 25 29 33 33 31 31 31 31 31 31 29 29 29 29 27 27 25 25 23 23 18 21 19 19 21
21 19 17 18 20 19 19 18 18 19 19 18 18 18 18 19 19 19 20 23 26 26 26 25 24 26 30 31 31 30 30 30 29 31 28 27 28 27 26 26 24 24 22 21 20 21 22 21 21
20 20 18 18 20 20 18 15 18 19 20 19 20 19 19 19 19 19 20 23 25 26 25 25 24 24 27 29 29 26 25 26 27 28 27 25 26 27 27 25 24 23 22 20 20 20 20 18 20
17 21 20 20 19 15 18 11 12 14 13 14 14 15 17 18 20 21 21 23 23 25 27 25 25 24 26 27 27 25 25 25 26 26 28 26 25 25 26 25 23 23 23 21 21 20 19 19 17
20 20 19 20 19 19 18 14 19 14 13 13 14 15 17 17 17 18 18 19 23 24 26 26 24 24 25 26 26 25 25 26 25 26 26 26 24 24 25 24 23 22 22 21 21 21 20 18 21
22 20 20 22 19 17 17 14 11 11 12 16 11 12 15 16 18 19 20 21 22 25 25 24 24 24 25 25 25 24 24 23 24 24 25 25 23 23 23 23 22 22 21 21 21 22 20 20 19
20 19 16 14 16 15 17 15 12 12 14 13 13 14 16 19 19 19 21 22 23 24 23 23 24 24 24 24 24 24 24 23 22 22 23 23 23 22 21 22 21 21 20 21 22 21 21 20 19
20 19 19 15 13 16 18 15 19 16 16 17 16 18 18 19 19 20 24 24 24 24 23 22 23 23 23 24 24 24 23 23 22 22 23 23 23 22 21 21 20 20 20 21 21 22 21 20 20
17 18 21 21 23 20 17 18 18 20 16 15 16 19 21 20 20 19 23 24 24 24 24 23 23 24 23 23 24 24 23 23 22 21 22 22 22 21 20 20 19 19 20 20 21 21 20 20 20
18 20 18 20 17 16 16 15 17 17 17 17 18 20 27 26 22 20 22 26 25 25 24 23 23 23 24 24 23 23 23 23 22 22 21 21 21 20 20 19 18 18 19 20 20 20 20 19 19
24 19 19 19 22 18 18 17 18 17 18 19 24 27 27 27 28 29 29 29 29 28 26 25 24 24 24 24 24 24 24 23 23 22 22 21 21 19 19 19 18 18 18 19 19 19 19 18 19
21 24 22 21 19 19 20 20 23 22 23 28 29 30 30 28 26 28 29 29 29 31 33 31 28 26 26 25 24 24 24 23 22 22 21 21 20 20 19 18 18 17 17 18 18 19 19 18 18
Lifted_Index
8 7 6 6 5 4 4 4 5 5 6 6 7 6 6 6 5 5 5 4 3 1 -1 -2 -3 -3 -4 -4 -4 -4 -4 -4 -3 -3 -2 -2 -1 -1 -0 -0 -1 -1 -1 -0 1 2 3 3 3
8 7 6 6 5 4 4 5 5 6 6 7 7 7 6 6 5 5 5 4 3 1 -0 -1 -2 -3 -3 -4 -4 -4 -4 -3 -3 -2 -1 -1 -0 0 1 1 0 0 0 1 3 4 4 5 5
8 8 7 6 4 4 4 5 6 6 7 7 7 7 7 6 6 6 5 4 3 1 0 -0 -1 -2 -3 -3 -3 -3 -3 -3 -2 -1 -0 0 1 2 2 3 2 2 3 4 5 6 7 7 7
8 8 7 5 4 4 5 6 6 6 7 7 7 7 7 7 7 7 5 4 3 2 1 0 -0 -1 -1 -2 -2 -2 -2 -1 0 1 1 2 2 4 4 5 5 5 6 7 8 8 9 9 9
9 8 6 4 4 4 6 6 6 6 7 7 7 7 7 8 8 8 6 4 3 2 2 1 1 -0 -0 -0 -1 -1 -0 0 1 2 2 3 4 6 7 7 7 7 8 9 9 10 10 11 11
8 7 4 3 3 4 6 6 6 6 7 7 7 7 7 8 8 8 7 5 4 4 3 3 2 1 1 1 0 0 1 1 2 3 4 6 7 8 8 9 9 9 10 10 11 11 12 12 13
8 6 4 3 3 4 5 6 6 6 6 7 7 6 7 8 8 8 7 5 5 5 4 4 3 2 2 2 2 2 2 3 4 5 6 8 9 9 10 10 10 10 11 11 12 13 13 14 14
7 6 4 3 3 4 5 6 6 6 6 7 7 6 7 8 8 8 7 6 5 5 5 5 4 4 3 3 3 3 3 4 6 7 8 9 10 11 11 11 11 11 11 13 14 15 15 16 16
7 5 3 4 4 5 6 6 6 7 6 6 6 7 7 8 8 8 8 7 6 6 6 6 5 5 5 5 5 5 5 6 8 9 10 11 13 13 13 13 12 12 13 14 15 16 17 17 17
6 5 4 4 5 6 6 6 6 6 5 5 5 6 7 8 8 8 7 7 7 7 7 7 7 7 7 7 7 7 7 8 9 10 12 13 14 15 15 14 14 14 15 16 17 17 17 17 17
6 5 5 5 6 6 6 5 5 5 4 4 4 6 7 7 7 7 7 7 8 8 7 7 7 8 8 8 9 9 9 10 11 12 13 15 15 15 16 16 16 16 17 17 17 17 17 17 17
6 6 6 6 6 6 6 5 5 5 4 4 4 5 6 6 6 6 6 7 8 8 8 8 8 8 9 9 10 10 10 11 12 13 15 16 16 15 16 16 17 17 17 17 17 17 17 17 17
6 6 6 6 6 6 5 5 5 5 4 4 5 5 5 6 6 6 6 7 7 7 8 8 8 8 9 9 10 10 11 12 13 14 15 16 16 16 15 16 16 17 17 17 17 17 17 17 17
7 6 6 6 6 6 5 4 5 5 4 4 5 5 5 6 6 6 6 6 6 7 8 8 8 8 9 9 9 10 10 12 13 14 15 16 16 16 15 15 16 17 17 17 17 16 16 17 17
7 6 5 5 5 5 5 5 5 5 5 5 5 5 6 6 6 6 6 6 6 7 7 8 9 9 9 9 9 9 10 11 12 14 15 16 16 16 16 16 16 17 17 17 17 16 16 16 17
6 5 4 4 5 6 6 5 5 5 6 6 5 6 6 6 6 6 6 6 6 7 8 8 8 9 9 9 9 10 10 11 12 13 14 15 16 16 16 16 17 17 18 17 17 16 16 16 16
5 4 4 4 5 6 6 5 5 6 7 6 6 6 5 5 5 5 6 6 7 7 8 8 8 9 9 9 9 10 10 11 12 13 14 15 16 16 16 16 17 18 18 18 17 16 16 16 16
4 5 5 5 5 6 6 6 7 7 7 6 6 5 5 5 5 5 6 7 7 8 8 9 9 9 9 9 9 10 10 11 12 13 14 15 16 16 16 17 17 18 18 18 17 17 17 16 16
5 5 5 5 6 6 6 7 8 8 7 6 6 5 5 5 5 6 6 7 7 8 8 9 9 8 9 9 9 9 10 11 12 13 14 15 16 16 16 17 18 18 18 18 18 17 17 17 17
5 5 5 6 6 7 7 7 8 8 7 6 6 6 6 6 6 6 6 6 7 7 8 8 8 8 8 9 9 9 10 10 11 12 13 15 16 16 17 17 18 18 18 18 18 18 17 17 18
5 5 5 6 6 7 7 7 7 8 7 6 6 6 6 7 6 6 6 6 6 7 7 8 8 9 9 9 9 9 10 10 11 11 13 14 15 16 17 18 18 18 18 18 18 18 18 18 18
5 5 5 6 6 6 6 6 6 7 7 7 6 7 7 7 7 7 6 6 6 7 7 7 8 8 9 9 9 9 10 10 10 11 12 13 14 16 16 17 18 18 18 18 18 18 18 18 18
5 5 5 5 5 5 5 5 5 7 7 7 7 7 7 7 7 7 7 7 7 7 7 7 7 8 9 9 9 9 9 10 10 10 11 12 13 15 16 17 18 18 18 18 19 19 19 19 18
4 4 4 4 4 3 4 4 5 6 7 7 7 7 7 7 7 7 7 7 7 7 7 7 7 7 8 9 9 9 9 9 10 10 11 11 12 13 14 15 16 17 18 18 19 19 19 19 19
3 3 2 2 2 2 3 4 4 6 7 7 7 7 7 7 7 7 7 7 6 7 7 8 8 8 8 9 9 9 9 10 10 10 10 10 11 12 12 14 15 16 17 18 19 19 19 19 19
3 2 1 1 1 2 3 3 4 6 6 6 6 6 6 5 5 6 6 6 6 6 7 7 8 8 8 9 9 9 9 9 9 9 9 10 10 10 11 12 13 15 16 17 18 19 19 19 19
3 3 2 1 1 1 2 3 4 5 5 6 6 5 5 4 5 5 6 6 6 6 7 7 7 8 8 8 8 8 9 9 8 8 8 9 9 10 11 11 12 14 15 17 18 18 19 19 19
4 3 3 2 1 1 1 2 3 4 5 5 5 4 4 4 4 5 5 5 6 6 6 7 7 8 8 8 8 8 8 8 8 8 8 8 9 9 10 11 12 13 14 16 17 17 18 19 19
4 3 2 1 1 0 1 1 3 4 4 4 4 4 5 4 4 4 5 5 6 6 6 7 7 7 7 8 8 8 8 8 8 8 8 7 8 8 9 10 11 12 13 15 16 16 17 18 18
3 3 2 1 1 1 1 1 2 3 4 4 4 5 5 5 5 5 5 5 5 6 6 6 6 7 7 7 7 8 8 8 9 8 8 7 7 8 9 10 11 12 13 14 15 16 17 17 18